When you browse on this site, cookies collect data to enhance your experience and personalize the content and advertising you see.
Visit our Privacy Policy to learn more. By continuing to use the site, you agree to this use of cookies and data.
  • în România
  • Lista ţărilor
  • Pe 7 zile
  • Temperatura apei
  • Hartă satelitară
  • Meteo pe hartă
  • Widget-uri
  • user-avatar
    Intrare

    Meteo pe oră la Kosyachiha

    Astăzi, 18 Noiembrie, Duminică

    Timp Temperatura Precipitaţii Vânt Presiune Umiditate
    00:00 +1°C° 0.4 mm 3 m/s 751 mmHg 96%
    01:00 +1°C° 0.4 mm 3 m/s 751 mmHg 96%
    02:00 +2°C° 0 mm 2 m/s 750 mmHg 96%
    03:00 +2°C° 0.4 mm 2 m/s 749 mmHg 96%
    04:00 +2°C° 0.4 mm 2 m/s 749 mmHg 97%
    05:00 +2°C° 0.4 mm 2 m/s 749 mmHg 97%
    06:00 +2°C° 0.1 mm 2 m/s 750 mmHg 97%
    07:00 +2°C° 0.1 mm 2 m/s 750 mmHg 97%
    08:00 +2°C° 0.1 mm 2 m/s 750 mmHg 97%
    09:00 +2°C° 0.1 mm 2 m/s 750 mmHg 97%
    10:00 +2°C° 0.1 mm 2 m/s 751 mmHg 96%
    11:00 +2°C° 0.1 mm 2 m/s 751 mmHg 96%
    12:00 +2°C° 0.1 mm 2 m/s 752 mmHg 96%
    13:00 +2°C° 0.1 mm 2 m/s 752 mmHg 96%
    14:00 +2°C° 0.1 mm 2 m/s 753 mmHg 96%
    15:00 +2°C° 0 mm 2 m/s 753 mmHg 96%
    16:00 +2°C° 0 mm 2 m/s 754 mmHg 96%
    17:00 +2°C° 0 mm 2 m/s 754 mmHg 96%
    18:00 +2°C° 0.1 mm 2 m/s 755 mmHg 96%
    19:00 +2°C° 0.1 mm 2 m/s 755 mmHg 96%
    20:00 +2°C° 0.1 mm 2 m/s 756 mmHg 96%
    21:00 +1°C° 0.1 mm 3 m/s 756 mmHg 96%
    22:00 +1°C° 0.1 mm 3 m/s 757 mmHg 95%
    23:00 +1°C° 0.1 mm 3 m/s 757 mmHg 95%

    Mâine, 19 Noiembrie, Luni

    Timp Temperatura Precipitaţii Vânt Presiune Umiditate
    00:00 0°C° 0 mm 3 m/s 758 mmHg 94%
    01:00 0°C° 0 mm 3 m/s 758 mmHg 92%
    02:00 0°C° 0 mm 3 m/s 759 mmHg 91%
    03:00 0°C° 0 mm 3 m/s 759 mmHg 91%
    04:00 -1°C° 0 mm 3 m/s 759 mmHg 90%
    05:00 -1°C° 0 mm 3 m/s 760 mmHg 90%
    06:00 -1°C° 0 mm 3 m/s 760 mmHg 90%
    07:00 -2°C° 0 mm 3 m/s 761 mmHg 89%
    08:00 -2°C° 0 mm 3 m/s 761 mmHg 89%
    09:00 -2°C° 0 mm 3 m/s 761 mmHg 89%
    10:00 -2°C° 0 mm 3 m/s 762 mmHg 88%
    11:00 -2°C° 0 mm 3 m/s 762 mmHg 87%
    12:00 -2°C° 0 mm 3 m/s 762 mmHg 87%
    13:00 -2°C° 0 mm 3 m/s 763 mmHg 87%
    14:00 -2°C° 0 mm 2 m/s 763 mmHg 86%
    15:00 -3°C° 0 mm 2 m/s 763 mmHg 87%
    16:00 -3°C° 0 mm 2 m/s 763 mmHg 87%
    17:00 -4°C° 0 mm 2 m/s 763 mmHg 88%
    18:00 -4°C° 0 mm 2 m/s 763 mmHg 88%
    19:00 -4°C° 0 mm 2 m/s 763 mmHg 89%
    20:00 -2°C° 0 mm 1 m/s 763 mmHg 89%
    21:00 -3°C° 0 mm 1 m/s 763 mmHg 89%
    22:00 -3°C° 0 mm 1 m/s 763 mmHg 90%
    23:00 -3°C° 0 mm 1 m/s 763 mmHg 90%

    Poimâine, 20 Noiembrie, Marţi

    Timp Temperatura Precipitaţii Vânt Presiune Umiditate
    00:00 -3°C° 0 mm 1 m/s 763 mmHg 90%
    01:00 -3°C° 0 mm 1 m/s 763 mmHg 90%
    02:00 -3°C° 0 mm 1 m/s 762 mmHg 90%
    03:00 -3°C° 0 mm 1 m/s 762 mmHg 90%
    04:00 -3°C° 0 mm 1 m/s 762 mmHg 89%
    05:00 -4°C° 0 mm 1 m/s 761 mmHg 89%
    06:00 -4°C° 0 mm 1 m/s 761 mmHg 88%
    07:00 -4°C° 0 mm 1 m/s 761 mmHg 88%
    08:00 -4°C° 0 mm 1 m/s 760 mmHg 88%
    09:00 -3°C° 0 mm 1 m/s 760 mmHg 85%
    10:00 -2°C° 0 mm 1 m/s 760 mmHg 82%
    11:00 -4°C° 0 mm 2 m/s 759 mmHg 79%
    12:00 -3°C° 0 mm 2 m/s 759 mmHg 80%
    13:00 -3°C° 0 mm 2 m/s 759 mmHg 81%
    14:00 -3°C° 0 mm 2 m/s 758 mmHg 82%
    15:00 -4°C° 0 mm 2 m/s 758 mmHg 84%
    16:00 -4°C° 0 mm 2 m/s 758 mmHg 86%
    17:00 -4°C° 0 mm 2 m/s 757 mmHg 88%
    18:00 -4°C° 0 mm 2 m/s 757 mmHg 87%
    19:00 -4°C° 0 mm 2 m/s 757 mmHg 87%
    20:00 -5°C° 0 mm 2 m/s 756 mmHg 86%
    21:00 -4°C° 0 mm 2 m/s 756 mmHg 86%
    22:00 -4°C° 0 mm 2 m/s 756 mmHg 86%
    23:00 -5°C° 0 mm 3 m/s 756 mmHg 86%

    21 Noiembrie, Miercuri

    Timp Temperatura Precipitaţii Vânt Presiune Umiditate
    00:00 -5°C° 0 mm 3 m/s 756 mmHg 87%
    01:00 -5°C° 0 mm 3 m/s 757 mmHg 88%
    02:00 -4°C° 0 mm 3 m/s 757 mmHg 88%
    03:00 -4°C° 0 mm 3 m/s 757 mmHg 89%
    04:00 -4°C° 0 mm 3 m/s 757 mmHg 90%
    05:00 -4°C° 0 mm 3 m/s 757 mmHg 91%
    06:00 -4°C° 0 mm 3 m/s 757 mmHg 91%
    07:00 -2°C° 0 mm 3 m/s 757 mmHg 92%
    08:00 -2°C° 0 mm 3 m/s 758 mmHg 92%
    09:00 -2°C° 0 mm 3 m/s 758 mmHg 91%
    10:00 -2°C° 0 mm 3 m/s 758 mmHg 89%
    11:00 -1°C° 0 mm 2 m/s 759 mmHg 87%
    12:00 -1°C° 0 mm 2 m/s 759 mmHg 87%
    13:00 -2°C° 0 mm 2 m/s 759 mmHg 88%
    14:00 -2°C° 0 mm 2 m/s 759 mmHg 88%
    15:00 -2°C° 0 mm 2 m/s 759 mmHg 90%
    16:00 -3°C° 0 mm 2 m/s 759 mmHg 92%
    17:00 -4°C° 0 mm 2 m/s 759 mmHg 94%
    18:00 -4°C° 0 mm 2 m/s 758 mmHg 94%
    19:00 -4°C° 0 mm 2 m/s 758 mmHg 94%
    20:00 -4°C° 0 mm 2 m/s 758 mmHg 94%
    21:00 -5°C° 0 mm 3 m/s 758 mmHg 93%
    22:00 -5°C° 0 mm 3 m/s 757 mmHg 92%
    23:00 -5°C° 0 mm 3 m/s 757 mmHg 91%

    22 Noiembrie, Joi

    Timp Temperatura Precipitaţii Vânt Presiune Umiditate
    00:00 -5°C° 0 mm 4 m/s 756 mmHg 90%
    01:00 -5°C° 0 mm 4 m/s 756 mmHg 89%
    02:00 -5°C° 0 mm 4 m/s 755 mmHg 88%
    03:00 -5°C° 0 mm 5 m/s 755 mmHg 87%
    04:00 -5°C° 0 mm 5 m/s 755 mmHg 87%
    05:00 -4°C° 0 mm 5 m/s 754 mmHg 86%
    06:00 -4°C° 0 mm 5 m/s 754 mmHg 85%
    07:00 -4°C° 0 mm 5 m/s 754 mmHg 84%
    08:00 -4°C° 0 mm 5 m/s 754 mmHg 84%
    09:00 -4°C° 0 mm 5 m/s 754 mmHg 83%
    10:00 -2°C° 0 mm 4 m/s 754 mmHg 83%
    11:00 -2°C° 0 mm 4 m/s 754 mmHg 83%
    12:00 -2°C° 0 mm 4 m/s 754 mmHg 84%
    13:00 -2°C° 0 mm 4 m/s 754 mmHg 85%
    14:00 -1°C° 0 mm 3 m/s 755 mmHg 86%
    15:00 -2°C° 0 mm 3 m/s 755 mmHg 88%
    16:00 -2°C° 0 mm 3 m/s 755 mmHg 89%
    17:00 -2°C° 0 mm 3 m/s 755 mmHg 91%
    18:00 -2°C° 0 mm 3 m/s 755 mmHg 92%
    19:00 -3°C° 0 mm 2 m/s 756 mmHg 93%
    20:00 -3°C° 0 mm 2 m/s 756 mmHg 93%
    21:00 -3°C° 0 mm 2 m/s 756 mmHg 93%
    22:00 -2°C° 0 mm 2 m/s 756 mmHg 93%
    23:00 -2°C° 0 mm 2 m/s 756 mmHg 93%

    23 Noiembrie, Vineri

    Timp Temperatura Precipitaţii Vânt Presiune Umiditate
    00:00 -2°C° 0 mm 2 m/s 756 mmHg 93%
    01:00 -2°C° 0 mm 2 m/s 757 mmHg 94%
    02:00 -2°C° 0 mm 2 m/s 757 mmHg 95%
    03:00 -2°C° 0 mm 3 m/s 757 mmHg 95%
    04:00 -2°C° 0 mm 3 m/s 756 mmHg 95%
    05:00 -2°C° 0 mm 3 m/s 756 mmHg 94%
    06:00 -2°C° 0 mm 3 m/s 756 mmHg 94%
    07:00 -1°C° 0 mm 3 m/s 756 mmHg 93%
    08:00 -1°C° 0 mm 3 m/s 756 mmHg 92%
    09:00 -1°C° 0 mm 3 m/s 755 mmHg 91%
    10:00 -2°C° 0 mm 4 m/s 755 mmHg 90%
    11:00 -2°C° 0 mm 4 m/s 754 mmHg 89%
    12:00 -2°C° 0 mm 5 m/s 754 mmHg 88%
    13:00 -2°C° 0 mm 5 m/s 753 mmHg 87%
    14:00 -3°C° 0 mm 6 m/s 753 mmHg 86%
    15:00 -3°C° 0 mm 6 m/s 752 mmHg 85%
    16:00 -3°C° 0 mm 6 m/s 751 mmHg 84%
    17:00 -4°C° 0 mm 6 m/s 751 mmHg 83%
    18:00 -4°C° 0 mm 6 m/s 750 mmHg 83%
    19:00 -4°C° 0 mm 6 m/s 750 mmHg 82%
    20:00 -4°C° 0 mm 6 m/s 749 mmHg 82%
    21:00 -3°C° 0.1 mm 6 m/s 749 mmHg 82%
    22:00 -2°C° 0.1 mm 5 m/s 748 mmHg 81%
    23:00 -2°C° 0.1 mm 5 m/s 748 mmHg 81%
    Arată mai mult